Hourly Data Report for October 26, 2013

All times are specified in Local Standard Time (LST). Add 1 hour to adjust for Daylight Saving Time where and when it is observed.

PETAWAWA AWOS 2
ONTARIO

45°57'00.000" N
77°19'00.000" W
130.10 m
6106396
71625
YWA

Download Data

Hourly Data (October 2013)
Hourly Data Report for October 26, 2013
Temp Definition
°C
Dew Point Temp Definition
°C
Rel Hum Definition
%
Wind Dir Definition
10's deg

Wind Spd Definition
km/h
Visibility Definition
km
Stn Press Definition
kPa
Hmdx Definition


Wind Chill Definition


Weather Definition


TIME
00:00 3.5 0.1 78 19 9 15.0 99.94     Rain
01:00 2.8 1.3 90 14 6 15.0 99.82     Rain
02:00 3.5 1.2 85 12 7 15.0 99.69      
03:00 4.0 1.2 82 13 9 15.0 99.58      
04:00 3.7 1.6 86 17 11 15.0 99.49     Rain
05:00 3.0 1.8 92 16 13 15.0 99.39     Rain
06:00 3.0 1.7 91 15 13 15.0 99.26     Rain
07:00 2.7 1.6 92 14 15 11.3 99.14     Rain
08:00 3.0 2.0 93 15 11 15.0 99.06     Rain
09:00 3.6 1.9 89 17 15 15.0 98.92     Rain
10:00 3.7 2.0 89 16 13 15.0 98.82     Rain
11:00 4.0 1.8 86 17 11 15.0 98.72     Rain
12:00 4.8 2.0 82 18 15 15.0 98.66      
13:00 5.9 3.3 83 19 6 15.0 98.64      
14:00 7.0 3.1 76 21 17 15.0 98.63      
15:00 7.6 3.0 73 22 11 15.0 98.65      
16:00 6.6 3.6 81 20 19 15.0 98.68     Rain
17:00 5.6 3.4 86 18 15 15.0 98.70     Drizzle
18:00 5.6 3.5 86 18 13 15.0 98.76      
19:00 5.2 3.3 88 21 9 15.0 98.80      
20:00 5.2 3.2 87 19 11 15.0 98.81      
21:00 4.9 3.4 90 27 4 15.0 98.87     Rain
22:00 4.7 3.6 93 23 9 15.0 98.89     Rain
23:00 4.8 3.4 91 26 11 15.0 98.93     Rain

Notes on Data Quality.

Legend

  • E = Estimated
  • M = Missing
  • NA = Not Available
  • ‡ = Partner data that is not subject to review by the National Climate Archives
Date modified: